FW8938 Weather Reports


time (UTC)temp
C
wind
direction
speed
KPH
gust
KPH
rain 1hr
cm
rain 24hr
cm
rain mn
cm
humidity
%
barometer
mb
20260906164611 34 195 6.4 16.1 0.00 0.03 0.00 49 1017.3
20260906163107 34 132 6.4 12.9 0.00 0.03 0.00 50 1017.4
20260906161604 33 295 4.8 11.3 0.00 0.03 0.00 51 1017.4
20260906160106 33 279 3.2 11.3 0.00 0.03 0.00 53 1017.5
20260906154609 32 271 4.8 9.7 0.00 0.03 0.00 55 1017.3
20260906153104 32 57 4.8 17.7 0.00 0.03 0.00 57 1017.3
20260906151606 31 274 8.0 16.1 0.00 0.03 0.00 59 1017.2
20260906150110 31 217 9.7 16.1 0.00 0.03 0.00 60 1017.2
20260906144605 30 274 11.3 17.7 0.00 0.03 0.00 62 1017.1
20260906143112 30 272 11.3 12.9 0.00 0.03 0.00 64 1017.1
20260906141604 -17 0.0 0.0 0.00 0.03 0.00 1017.1
20260906134606 -17 0.0 0.0 0.00 0.03 0.00 1017.0
20260906133112 -17 0.0 0.0 0.00 0.03 0.00 1016.9
20260906131605 -17 0.0 0.0 0.00 0.03 0.00 1016.8
20260906124606 -17 0.0 0.0 0.00 0.03 0.00 1016.7
20260906123114 -17 0.0 0.0 0.00 0.03 0.00 1016.6
20260906121602 -17 0.0 0.0 0.00 0.03 0.00 1016.3
20260906120145 -17 0.0 0.0 0.00 0.03 0.00 1016.3
20260906114634 -17 0.0 0.0 0.00 0.03 0.00 1016.1
20260906113103 -17 0.0 0.0 0.00 0.03 0.00 1015.9
20260906111617 -17 94 1.6 4.8 0.00 0.03 0.00 81 1015.8
20260906110104 23 0 0.0 0.0 0.00 0.03 0.00 80 1015.8
20260906104603 23 0 0.0 0.0 0.00 0.03 0.00 79 1015.7
20260906103104 23 0 0.0 0.0 0.00 0.03 0.00 78 1015.7
20260906101600 24 0 0.0 0.0 0.00 0.03 0.00 76 1015.7
20260906100105 25 0 0.0 4.8 0.00 0.03 0.00 75 1015.6
20260906094604 25 0 0.0 3.2 0.00 0.03 0.00 74 1015.3
20260906093100 25 62 1.6 3.2 0.00 0.03 0.00 74 1015.3
20260906091603 25 59 1.6 3.2 0.00 0.03 0.00 72 1015.3
20260906090109 25 56 1.6 4.8 0.00 0.03 0.00 72 1015.2
20260906084603 26 49 1.6 8.0 0.00 0.03 0.00 69 1015.2
20260906083103 26 113 1.6 12.9 0.00 0.03 0.00 69 1015.2
20260906081605 26 223 4.8 9.7 0.00 0.03 0.00 69 1015.1
20260906080103 26 132 4.8 9.7 0.00 0.03 0.00 69 1015.1
20260906074603 26 257 3.2 8.0 0.00 0.03 0.00 69 1015.1
20260906073101 26 223 4.8 9.7 0.00 0.03 0.00 70 1015.2
20260906071600 26 231 3.2 8.0 0.00 0.03 0.00 70 1015.4
20260906070105 26 227 4.8 8.0 0.00 0.03 0.00 69 1015.6
20260906064556 26 224 4.8 6.4 0.00 0.03 0.00 68 1015.6
20260906063102 26 142 3.2 6.4 0.00 0.03 0.00 69 1015.8
20260906061612 26 124 3.2 4.8 0.00 0.03 0.00 68 1015.7
20260906060107 26 121 3.2 3.2 0.00 0.03 0.00 68 1015.7
20260906054637 26 115 1.6 3.2 0.00 0.03 0.00 68 1015.6
20260906053101 26 122 3.2 4.8 0.00 0.03 0.00 68 1015.7
20260906051601 26 121 3.2 4.8 0.00 0.03 0.00 67 1015.7
20260906050109 27 130 4.8 6.4 0.00 0.03 0.00 66 1015.7
20260906044603 27 185 3.2 6.4 0.00 0.03 0.03 65 1015.5
20260906043106 27 253 3.2 6.4 0.00 0.03 0.03 64 1015.8
20260906041604 27 330 3.2 6.4 0.00 0.03 0.03 63 1015.8
20260906040121 28 144 3.2 6.4 0.00 0.03 0.03 62 1015.6
20260906034602 28 244 3.2 9.7 0.00 0.03 0.03 62 1015.7
20260906033126 28 195 6.4 9.7 0.00 0.03 0.03 59 1015.4
20260906031618 29 294 3.2 11.3 0.00 0.03 0.03 58 1015.4
20260906030106 30 273 6.4 11.3 0.00 0.03 0.03 56 1015.3
20260906024608 29 72 4.8 6.4 0.00 0.03 0.03 57 1015.1
20260906023106 29 246 0.0 4.8 0.00 0.03 0.03 58 1015.0
20260906021615 29 54 3.2 4.8 0.00 0.03 0.03 57 1014.9
20260906020104 29 275 3.2 8.0 0.00 0.03 0.03 58 1014.5
20260906014603 29 264 3.2 9.7 0.00 0.03 0.03 56 1014.5
20260906013112 29 265 3.2 11.3 0.00 0.03 0.03 57 1014.4
20260906011607 29 283 4.8 6.4 0.00 0.03 0.03 57 1014.3
20260906010103 29 123 3.2 8.0 0.00 0.03 0.03 58 1014.4
20260906004605 30 254 4.8 16.1 0.00 0.03 0.03 56 1014.3
20260906003108 30 195 6.4 16.1 0.00 0.03 0.03 55 1014.6
20260906001604 30 224 11.3 24.1 0.00 0.03 0.03 56 1014.6
20260906000108 31 218 16.1 33.8 0.00 0.03 0.03 55 1014.7
20260905234607 33 79 0.0 1.6 0.03 0.03 0.03 54 1014.2
20260905233105 31 0 1.6 6.4 0.03 0.03 0.03 59 1014.0
20260905231607 31 100 6.4 16.1 0.03 0.03 0.03 57 1014.1
20260905230103 31 108 17.7 32.2 0.03 0.03 0.03 57 1014.3
20260905224613 35 177 8.0 16.1 0.00 0.00 0.00 43 1014.0
20260905223104 36 218 9.7 14.5 0.00 0.00 0.00 42 1013.7
20260905221606 36 202 9.7 22.5 0.00 0.00 0.00 41 1013.8
20260905214607 36 113 3.2 11.3 0.00 0.00 0.00 40 1013.9
20260905213115 36 234 6.4 14.5 0.00 0.00 0.00 41 1013.9
20260905211612 36 94 3.2 11.3 0.00 0.00 0.00 41 1014.2
20260905210108 36 149 6.4 17.7 0.00 0.00 0.00 40 1014.2
20260905204614 36 128 8.0 16.1 0.00 0.00 0.00 40 1014.5
20260905203126 37 194 4.8 16.1 0.00 0.00 0.00 40 1014.7
20260905201610 37 91 3.2 19.3 0.00 0.00 0.00 38 1014.9
20260905200120 36 112 4.8 14.5 0.00 0.00 0.00 39 1015.1
20260905194612 36 69 1.6 6.4 0.00 0.00 0.00 40 1015.3
20260905193101 36 167 6.4 12.9 0.00 0.00 0.00 40 1015.5
20260905191606 36 26 3.2 11.3 0.00 0.00 0.00 41 1015.7
20260905190106 35 81 3.2 16.1 0.00 0.00 0.00 45 1016.0
20260905184611 35 67 3.2 9.7 0.00 0.00 0.00 46 1016.1
20260905183106 34 145 8.0 20.9 0.00 0.00 0.00 47 1016.4
20260905181609 35 205 6.4 12.9 0.00 0.00 0.00 46 1016.5
20260905180106 35 69 9.7 19.3 0.00 0.00 0.00 45 1016.6
20260905174606 34 89 12.9 17.7 0.00 0.00 0.00 47 1016.8
20260905173106 35 61 3.2 14.5 0.00 0.00 0.00 48 1017.1
20260905171606 35 121 4.8 12.9 0.00 0.00 0.00 48 1017.3
20260905170123 33 97 8.0 17.7 0.00 0.00 0.00 50 1017.4